Regional Weather Roundup
Issued by NWS Sioux Falls, SD

Home | Current Version | Previous Version | Graphics & Text | Print | Product List | Glossary On
Versions: 1 2 3 4 5 6 7 8 9 10 11 12 13 14 15 16 17 18 19 20 21 22 23 24 25 26 27 28 29 30 31 32 33 34 35 36 37 38 39 40 41 42 43 44 45 46 47 48 49 50
619
ASUS43 KFSD 281002
RWRFSD

WEATHER ROUNDUP FOR SE SOUTH DAKOTA/SW MINNESOTA/NW IOWA
NATIONAL WEATHER SERVICE SIOUX FALLS SD
500 AM CDT TUE MAR 28 2017

NOTE: "FAIR" INDICATES FEW OR NO CLOUDS BELOW 12,000 FEET WITH NO
SIGNIFICANT WEATHER AND OR OBSTRUCTIONS TO VISIBILITY.


SDZ038>040-050-052>070-281100-
SOUTHEAST SOUTH DAKOTA

CITY           SKY/WX    TMP DP  RH WIND       PRES   REMARKS
BROOKINGS      MOCLDY    38  35  89 CALM      30.05S
CHAMBERLAIN    CLOUDY    46  42  87 E8        30.00S
HURON          CLEAR     33  33 100 SE6       30.05R WCI  28
MADISON        PTSUNNY   36  36 100 E3        30.06R
MITCHELL       CLEAR     36  35  96 SE8       30.05S
SIOUX FALLS    CLEAR     33  33 100 CALM      30.06R
WINNER         CLOUDY    47  40  76 SE12      29.98F
YANKTON        CLOUDY    43  37  81 CALM      30.05S
$$

MNZ071-072-080-081-089-090-097-098-281100-
SOUTHWEST MINNESOTA

CITY           SKY/WX    TMP DP  RH WIND       PRES   REMARKS
FAIRMONT       FOG       35  35 100 CALM      30.07R VSB 1/2
JACKSON        MOCLDY    36  36 100 NW5       30.06S
MARSHALL       CLOUDY    42  37  82 SW5       30.07R
MONTEVIDEO     CLOUDY    37  34  87 E5        30.08S
PIPESTONE      CLEAR     37  34  87 CALM      30.05S FOG
REDWOOD FALLS  CLOUDY    40  32  73 N3        30.06S
TRACY          CLOUDY    42  38  88 W6        30.06S
WINDOM         CLOUDY    37  36  93 W5        30.06R
WORTHINGTON    CLEAR     34  33  96 CALM      30.06S
$$

IAZ001>003-012>014-020>022-031-032-NEZ013-014-SDZ071-281100-
NORTHWEST IOWA

CITY           SKY/WX    TMP DP  RH WIND       PRES   REMARKS
CHEROKEE       CLEAR     31  31 100 CALM      30.06R
DENISON        CLOUDY    39  39 100 CALM      30.07R
ESTHERVILLE    CLEAR     33  33 100 NW5       30.05S WCI  29
LE MARS        CLOUDY    32  32 100 CALM      30.07S
ORANGE CITY    CLEAR     36  36 100 CALM      30.06S
SHELDON        PTCLDY    30  30 100 CALM      30.05R FOG
SIOUX CITY     FOG       30  30 100 NW3       30.06F VSB 3/4
SPENCER        FOG       29  29 100 CALM      30.05F VSB 1/2
STORM LAKE     FOG       37  37 100 N5        30.05R VSB 1/4
$$

ABBREVIATIONS USED IN REMARKS
   TC - TEMPERATURE IN CELSIUS
  WCI - WIND CHILL INDEX
   HX - HEAT INDEX
  VSB - VISIBILITY





USA.gov is the U.S. government's official web portal to all federal, state and local government web resources and services.